www.pogodaiklimat.ru

Погода и климат >> Архив погоды >> Великобритания >> South Uist Range


ПОГОДА в South Uist Range

  • Прогноз погоды в South Uist Range
  • Монитор погоды в South Uist Range
  • Климат города

АРХИВ ПОГОДЫ в South Uist Range

Время (UTC), дата Ветер
(напр.,м/с)
 
Видим.   Явления Облачность Т
(С)
Тd
(С)
f
(%)
Тe
(С)
Тes
(С)
Комфортность P
(гПа)
Po
(гПа)
Тmin
(С)
Tmax
(С)
R
(мм)
R24
(мм)
S
(см)
10 12.12 ЮВ 3 4500 м дымка н/о +8.0 +7.5 97 +5 +5 1012.7 1012.2
11 12.12 Ю 5 8000 м ливневой дождь н/о +8.9 +8.4 97 +5 +5 1012.7 1012.2
12 12.12 ЮВ 12
{16}
6000 м слаб. дождь н/о +8.9 +8.1 95 +3 +3 1012.1 1011.6 5
14 12.12 ЮВ 14
{20}
16 км в посл. час дождь н/о +9.1 +7.8 92 +3 +3 1010.9 1010.4
13 12.12 ЮВ 13
{17}
6000 м в посл. час дождь н/о +8.9 +7.9 93 +3 +3 1011.5 1011.0
15 12.12 ЮВ 13
{19}
5000 м дым н/о +8.8 +7.4 91 +3 +3 1010.4 1009.9
16 12.12 ЮВ 15
{21}
14 км н/о +8.8 +7.1 89 +3 +3 1010.1 1009.6
17 12.12 ЮВ 13
{21}
15 км н/о +8.7 +6.7 87 +3 +3 1010.0 1009.5
18 12.12 ЮВ 15
{21}
13 км н/о +8.8 +6.4 85 +3 +3 1009.6 1009.1 +9.2 6
20 12.12 ЮВ 14-20
{21}
17 км н/о +8.5 +5.7 83 +3 +3 1009.2 1008.7
19 12.12 ЮВ 15-21
{23}
10 км дым н/о +8.5 +6.3 86 +2 +2 1009.2 1008.7
21 12.12 ЮВ 16
{23}
20 км н/о +8.7 +5.3 79 +3 +3 1008.9 1008.4
22 12.12 ЮВ 15-21
{23}
18 км н/о +8.3 +5.3 81 +2 +2 1008.9 1008.4
23 12.12 ЮВ 18-25
{25}
20 км н/о +8.1 +4.7 79 +2 +2 1008.7 1008.2
00 13.12 ЮВ 17-23
{23}
29 км н/о +7.9 +4.2 77 +1 +1 1008.7 1008.2
02 13.12 ЮВ 14
{25}
29 км н/о +7.3 +3.0 74 +1 +1 1008.4 1007.9
01 13.12 ЮВ 16-23
{25}
30 км в посл. час дождь н/о +7.7 +3.7 76 +1 +1 1008.2 1007.7
03 13.12 ЮВ 15-22
{24}
28 км н/о +6.7 +2.1 72 0 0 1008.6 1008.1
04 13.12 ЮВ 17-22
{23}
18 км н/о +6.1 +1.6 73 -1 -1 1008.2 1007.7
05 13.12 ЮВ 18-24
{24}
24 км н/о +5.9 +0.5 68 -2 -2 1008.1 1007.6
06 13.12 ЮВ 14-19
{23}
27 км н/о +5.8 +0.5 69 -1 -1 1008.3 1007.9 +5.7 0.0
08 13.12 ЮВ 17-23
{24}
12 км н/о +5.6 +0.8 71 -2 -2 1008.9 1008.4
07 13.12 ЮВ 17-22
{24}
18 км н/о +5.9 +0.7 69 -1 -1 1008.2 1007.7
09 13.12 ЮВ 16-23
{24}
7000 м слаб. ливневой дождь н/о +5.5 +2.1 79 -2 -2 1009.5 1009.1
10 13.12 ЮВ 16-23
{23}
23 км в посл. час дождь н/о +5.9 +1.2 72 -1 -1 1009.7 1009.3
11 13.12 ЮВ 15-21
{25}
22 км в посл. час дождь н/о +6.1 +1.3 71 -1 -1 1010.3 1009.8
12 13.12 ЮВ 17
{23}
27 км н/о +6.1 +1.3 71 -1 -1 1010.3 1009.8 0.0
14 13.12 ЮВ 15-21
{22}
16 км н/о +6.2 +1.5 72 -1 -1 1010.6 1010.1
13 13.12 ЮВ 17-24
{24}
24 км н/о +6.1 +1.3 71 -1 -1 1010.4 1009.9
15 13.12 ЮВ 17-23
{24}
21 км н/о +6.1 +1.7 73 -1 -1 1010.5 1010.0
16 13.12 ЮВ 16-23
{23}
16 км н/о +6.2 +1.8 73 -1 -1 1011.0 1010.5
17 13.12 Ю 14-20
{22}
21 км н/о +6.3 +2.2 75 -0 -0 1011.1 1010.6
18 13.12 Ю 17-22
{23}
14 км н/о +6.9 +2.7 75 0 0 1011.5 1011.1 +6.9 0.0
20 13.12 Ю 16-22
{24}
9000 м дым н/о +6.7 +3.9 82 -0 -0 1013.0 1012.5
19 13.12 Ю 16-24
{24}
12 км н/о +6.9 +3.1 77 0 0 1012.3 1011.8
21 13.12 Ю 14
{24}
9000 м дым н/о +6.7 +4.1 83 0 0 1013.4 1013.0
22 13.12 Ю 14-19
{21}
3300 м ливневой дождь н/о +6.0 +4.7 91 -1 -1 1013.8 1013.3
23 13.12 Ю 14
{20}
6000 м слаб. дождь н/о +6.5 +5.0 90 -0 -0 1013.8 1013.3
00 14.12 Ю 12
{19}
3700 м в посл. час дождь н/о +6.4 +5.0 91 -0 -0 1014.0 1013.5 0.6
01 14.12 Ю 13
{20}
4800 м в посл. час дождь н/о +6.4 +5.0 91 -0 -0 1014.4 1013.9
17 14.12 ЮВ 20-25
{26}
15 км н/о +6.4 +2.4 76 -1 -1 1009.1 1008.6
18 14.12 Ю 16-23
{27}
16 км н/о +6.2 +2.7 78 -1 -1 1008.6 1008.1 +6.6 0.0
19 14.12 ЮВ 17-24
{25}
10 км дым н/о +6.3 +3.1 80 -1 -1 1008.0 1007.5
20 14.12 Ю 16-23
{25}
5000 м слаб. ливневой дождь н/о +5.9 +3.6 85 -2 -2 1008.0 1007.5
21 14.12 ЮВ 19
{25}
5000 м слаб. дождь н/о +6.0 +4.0 87 -2 -2 1007.5 1007.0
23 14.12 ЮВ 20-26
{30}
7000 м дым н/о +6.4 +4.2 86 -1 -1 1005.9 1005.4
22 14.12 ЮВ 20-26
{27}
8000 м в посл. час дождь н/о +6.3 +4.0 85 -2 -2 1006.6 1006.1
00 15.12 ЮВ 20-26
{26}
8000 м дым н/о +6.5 +4.0 84 -1 -1 1004.9 1004.5 0.2
01 15.12 Ю 20-25
{28}
3200 м слаб. ливневой дождь н/о +6.0 +4.1 88 -2 -2 1004.3 1003.8
02 15.12 ЮВ 20-26
{28}
5000 м слаб. морось н/о +5.8 +4.0 88 -2 -2 1003.6 1003.2
03 15.12 ЮВ 19-24
{26}
3100 м дождь н/о +5.3 +3.8 90 -3 -3 1002.7 1002.2
05 15.12 ЮВ 20-25
{28}
3800 м слаб. дождь н/о +5.9 +4.5 91 -2 -2 1001.7 1001.2
04 15.12 ЮВ 20-26
{27}
4400 м слаб. дождь н/о +5.6 +4.0 89 -3 -3 1002.2 1001.7
06 15.12 Ю 17 3700 м слаб. дождь н/о +5.6 +4.3 91 -2 -2 1000.9 1000.4 +5.1 0.6
07 15.12 ЮВ 17-24
{25}
3800 м слаб. дождь н/о +5.1 +3.7 91 -3 -3 1001.3 1000.8
08 15.12 Ю 14-20
{24}
5000 м н/о +5.0 +3.7 91 -3 -3 1001.4 1000.9
09 15.12 ЮВ 17-22
{23}
6000 м в посл. час дождь н/о +4.6 +3.0 89 -4 -4 1000.8 1000.3
11 15.12 ЮВ 14
{20}
н/о н/о +4.8 +2.8 87 -3 -3 997.8 997.3
10 15.12 ЮВ 14-20
{22}
10 км дым н/о +4.2 +2.2 87 -4 -4 999.6 999.2
12 15.12 ЮВ 12-17
{19}
3200 м дождь н/о +4.4 +3.2 92 -3 -3 995.1 994.6 5
13 15.12 ЮВ 15-22
{22}
2100 м жидкие осадки н/о +4.9 +3.3 89 -3 -3 993.5 993.0
14 15.12 ЮВ 12
{22}
2200 м слаб. дождь со снегом н/о +4.5 +3.3 92 -3 -3 992.0 991.5
15 15.12 В 8
{14}
2700 м слаб. дождь со снегом н/о +4.4 +3.2 92 -2 -2 990.2 989.7
17 15.12 В 6 5000 м слаб. ливневой дождь н/о +5.4 +3.8 89 +1 +1 986.9 986.4
16 15.12 В 5 10 км дождь н/о +5.5 +4.0 90 +1 +1 988.5 988.0
18 15.12 ЮВ 11-17
{17}
19 км в посл. час дождь н/о +6.0 +3.6 85 -0 -0 985.2 984.7 +6.0 31
19 15.12 ЮВ 11-17
{21}
16 км в посл. час дождь н/о +6.1 +4.0 86 -0 -0 984.5 984.0
20 15.12 В 6-12
{15}
8000 м ливневой дождь н/о +5.7 +3.9 88 +1 +1 983.8 983.3
21 15.12 ЮВ 13
{20}
6000 м слаб. дождь н/о +5.3 +3.6 89 -2 -2 983.3 982.8
23 15.12 ЮВ 10
{14}
7000 м слаб. дождь н/о +5.0 +3.7 91 -2 -2 982.8 982.3
22 15.12 ЮВ 9
{17}
6000 м слаб. дождь н/о +4.8 +3.3 90 -2 -2 983.3 982.9
00 16.12 ЮВ 10
{15}
19 км в посл. час дождь н/о +5.5 +4.1 91 -1 -1 982.0 981.5 6
01 16.12 ЮВ 12
{17}
8000 м слаб. ливневой дождь н/о +5.7 +4.0 89 -1 -1 981.1 980.7
02 16.12 В 12
{18}
4900 м слаб. дождь н/о +5.5 +4.3 92 -1 -1 981.4 981.0
03 16.12 С 9
{17}
4200 м слаб. дождь со снегом н/о +2.9 +2.1 94 -4 -4 985.1 984.6
05 16.12 З 6 19 км в посл. час снег н/о +4.4 +3.5 94 -1 -1 988.4 987.9
04 16.12 СЗ 9
{13}
5000 м слаб. дождь со снегом н/о +2.6 +1.7 94 -5 -5 987.4 986.9
06 16.12 ЮЗ 6 21 км в посл. час дождь н/о +5.5 +4.4 93 +1 +1 988.9 988.5 +2.1 17
07 16.12 З 8 25 км н/о +7.5 +5.2 85 +3 +3 989.5 989.0
08 16.12 З 7 16 км н/о +7.5 +3.7 77 +3 +3 990.3 989.8
09 16.12 ЮЗ 8
{17}
13 км в посл. час дождь н/о +7.3 +4.3 81 +2 +2 991.3 990.8
11 16.12 ЮЗ 6 14 км в посл. час дождь н/о +7.1 +4.6 84 +3 +3 992.6 992.1
10 16.12 ЮЗ 7
{13}
15 км в посл. час дождь н/о +6.8 +3.7 81 +2 +2 992.1 991.6
12 16.12 ЮЗ 10 20 км н/о +7.8 +4.3 79 +3 +3 992.7 992.2 1
13 16.12 Ю 8
{13}
13 км н/о +7.0 +4.0 81 +2 +2 993.0 992.6
14 16.12 Ю 6 12 км н/о +6.6 +4.0 83 +2 +2 993.2 992.7
15 16.12 Ю 9
{13}
20 км в посл. час дождь н/о +6.6 +4.7 88 +1 +1 993.8 993.4
17 16.12 ЮЗ 10
{13}
10 км ливневой дождь н/о +6.8 +5.4 91 +1 +1 995.2 994.7
16 16.12 ЮЗ 11
{17}
5000 м ливневой дождь н/о +6.3 +4.7 89 -0 -0 994.7 994.2
18 16.12 Ю 6
{14}
16 км в посл. час дождь н/о +6.1 +5.0 93 +1 +1 995.7 995.2 +7.9 7
19 16.12 Ю 8
{14}
35 км н/о +6.0 +4.5 90 +1 +1 996.3 995.8
20 16.12 Ю 7 30 км в посл. час дождь н/о +6.5 +5.0 90 +1 +1 996.8 996.3
21 16.12 Ю 8
{14}
10 км в посл. час дождь н/о +6.4 +4.8 89 +1 +1 997.4 996.9
23 16.12 Ю 6 28 км в посл. час дождь н/о +5.8 +4.8 93 +1 +1 998.7 998.2
22 16.12 Ю 8 10 км ливневой дождь н/о +6.2 +5.1 93 +1 +1 998.3 997.8
00 17.12 Ю 7 35 км в посл. час дождь н/о +5.9 +4.9 93 +1 +1 999.6 999.1 2
01 17.12 Ю 6 22 км н/о +5.7 +4.4 91 +1 +1 1000.2 999.7
02 17.12 Ю 7 40 км в посл. час дождь н/о +5.7 +3.5 86 0 0 1000.8 1000.3
03 17.12 З 7 3100 м слаб. ливневой дождь н/о +7.2 +5.6 90 +2 +2 1001.4 1000.9
05 17.12 Ю 5 19 км н/о +5.1 +3.5 89 +1 +1 1002.0 1001.5
04 17.12 Ю 5 21 км в посл. час дождь н/о +5.6 +4.1 90 +1 +1 1001.6 1001.1
06 17.12 Ю 6 14 км н/о +6.9 +5.4 90 +2 +2 1002.3 1001.8 +4.6 3
07 17.12 Ю 7 17 км н/о +6.4 +4.4 87 +1 +1 1002.7 1002.2
08 17.12 Ю 6 20 км н/о +6.0 +4.1 88 +1 +1 1002.7 1002.2
09 17.12 Ю 8 14 км н/о +7.2 +5.5 89 +2 +2 1002.9 1002.4
11 17.12 Ю 11
{15}
13 км н/о +8.0 +5.6 85 +3 +3 1002.2 1001.7
10 17.12 Ю 10
{14}
14 км н/о +7.7 +5.7 87 +2 +2 1002.9 1002.4
12 17.12 Ю 12-17
{17}
10 км н/о +8.3 +5.8 84 +3 +3 1001.4 1001.0
13 17.12 Ю 14-20
{20}
11 км слаб. ливневой дождь н/о +8.4 +5.9 84 +3 +3 1000.4 999.9
14 17.12 Ю 14
{23}
9000 м слаб. ливневой дождь н/о +8.0 +6.4 90 +2 +2 999.3 998.8
15 17.12 ЮВ 17-22
{22}
11 км дождь н/о +8.4 +6.7 89 +2 +2 998.4 997.9
17 17.12 ЮВ 18-25
{26}
13 км в посл. час дождь н/о +9.6 +7.5 87 +4 +4 996.3 995.8
16 17.12 ЮВ 16-22
{24}
10 км слаб. ливневой дождь н/о +9.0 +7.3 89 +3 +3 997.7 997.2
18 17.12 ЮВ 21-31
{31}
11 км н/о +10.4 +7.8 84 +4 +4 994.9 994.4 +10.4 0.4
19 17.12 ЮВ 20-28
{30}
10 км н/о +10.6 +8.0 84 +5 +5 994.3 993.8
20 17.12 Ю 19-27
{28}
5000 м ливневой дождь н/о +9.9 +8.3 90 +4 +4 993.5 993.0
21 17.12 ЮВ 22-30
{30}
6000 м слаб. ливневой дождь н/о +10.8 +9.0 89 +5 +5 992.7 992.2
23 17.12 Ю 17-24
{27}
7000 м ливневой дождь н/о +11.0 +9.3 89 +6 +6 992.1 991.6
22 17.12 Ю 22-28
{29}
4500 м слаб. дождь н/о +10.8 +8.9 88 +5 +5 991.9 991.4
00 18.12 Ю 16-22
{25}
5000 м дождь н/о +10.7 +9.5 92 +5 +5 992.0 991.5 2
01 18.12 Ю 13-19
{23}
14 км в посл. час дождь н/о +11.0 +9.4 90 +6 +6 990.4 989.9
02 18.12 Ю 18-25
{25}
5000 м слаб. ливневой дождь н/о +11.2 +9.5 89 +6 +6 988.3 987.9
03 18.12 ЮВ 22-27
{28}
4200 м слаб. дождь н/о +11.2 +9.7 90 +5 +5 986.8 986.4
05 18.12 ЮВ 21-30
{33}
4500 м слаб. ливневой дождь н/о +11.2 +9.4 89 +6 +6 984.4 984.0
04 18.12 ЮВ 22-32
{32}
8000 м в посл. час дождь н/о +11.4 +9.5 88 +6 +6 985.6 985.2
06 18.12 ЮВ 22 3800 м слаб. дождь н/о +11.0 +9.2 89 +5 +5 982.7 982.2 +9.8 6
07 18.12 ЮВ 23-34
{35}
3800 м слаб. дождь н/о +10.8 +9.2 90 +5 +5 980.7 980.2
08 18.12 ЮВ 25-35
{36}
2500 м дождь н/о +10.6 +9.2 91 +4 +4 979.6 979.1
09 18.12 ЮЗ 15
{35}
14 км слаб. дождь н/о +8.7 +7.2 90 +3 +3 982.8 982.3
11 18.12 Ю 11
{14}
9000 м дым н/о +8.7 +6.6 87 +3 +3 986.7 986.2
10 18.12 ЮЗ 11
{20}
19 км в посл. час дождь н/о +8.4 +6.7 89 +3 +3 985.7 985.2
12 18.12 Ю 7 14 км н/о +8.5 +7.0 90 +4 +4 986.8 986.3 3
13 18.12 Ю 8 14 км н/о +8.6 +6.8 88 +4 +4 986.9 986.4
14 18.12 Ю 10
{13}
30 км в посл. час дождь н/о +8.3 +6.2 87 +3 +3 986.9 986.4
15 18.12 Ю 7
{16}
25 км в посл. час дождь н/о +8.0 +6.5 90 +3 +3 986.9 986.5
17 18.12 Ю 9 29 км н/о +7.5 +5.8 89 +2 +2 987.7 987.2
16 18.12 Ю 8 20 км в посл. час дождь н/о +7.2 +5.6 90 +2 +2 987.5 987.0
18 18.12 Ю 8
{13}
13 км в посл. час дождь н/о +7.8 +6.2 90 +3 +3 987.9 987.4 +11.2 4
19 18.12 Ю 10
{15}
40 км н/о +7.5 +5.4 87 +2 +2 988.4 988.0
20 18.12 Ю 8 24 км н/о +7.2 +5.3 88 +2 +2 988.9 988.4
21 18.12 Ю 9 23 км слаб. морось с дождем н/о +6.6 +4.9 89 +1 +1 989.3 988.8
23 18.12 Ю 7
{14}
14 км в посл. час дождь н/о +6.1 +4.2 88 +1 +1 989.1 988.6
22 18.12 Ю 8 25 км в посл. час дождь н/о +6.9 +5.3 90 +2 +2 989.0 988.5
00 19.12 Ю 9 21 км в посл. час дождь н/о +7.0 +5.0 87 +2 +2 989.1 988.6 0.2
01 19.12 Ю 9 16 км н/о +6.9 +5.0 88 +1 +1 989.1 988.6
02 19.12 Ю 9 17 км н/о +7.1 +5.1 87 +2 +2 989.0 988.5
03 19.12 Ю 8 17 км н/о +6.9 +4.8 86 +2 +2 988.8 988.4
05 19.12 Ю 9
{13}
16 км н/о +7.5 +5.0 84 +2 +2 988.5 988.0
04 19.12 Ю 10
{13}
18 км н/о +7.0 +4.5 84 +1 +1 988.7 988.2
06 19.12 Ю 10
{14}
20 км н/о +7.2 +4.5 83 +2 +2 988.3 987.8 +6.0 0.2
07 19.12 Ю 11
{15}
14 км н/о +7.6 +4.9 83 +2 +2 988.3 987.8
08 19.12 Ю 11
{16}
15 км н/о +7.7 +5.2 84 +2 +2 988.3 987.9

 

Местоположение метеостанции South Uist Range (Великобритания): широта 57.33 долгота -7.37 высота над уровнем моря 4 м.

В архиве по умолчанию представлена погода в South Uist Range за последнюю неделю. Архивные данные за месяц целиком и за предыдущие месяцы, начиная с января 2011 года, Вы можете получить, выбрав интересующий диапазон дат из раскрывающегося списка и нажав кнопку "Ввод!".


*Определитесь, кто Вы:
робот инопланетянин человек

Внимание! Время в таблицах - всемирное. Для получения местного времени необходимо прибавить поправку, которая в South Uist Range равна 0 ч.

Смотрите также архив погоды в соседних городах и на ближайших метеорологических станциях:

Погода в Skye (Великобритания) (95 км)
Погода в Tiree (Великобритания) (97 км)
Погода в Bealach Na Ba (Великобритания) (102 км)
Погода в Stornoway (Великобритания) (117 км)
Погода в Aultbea (Великобритания) (120 км)
Погода в Loch Glascarnoch (Великобритания) (155 км)
Погода в Aonach Moor (Великобритания) (156 км)
Погода в Tulloch Bridge (Великобритания) (169 км)
Погода в Port Ellen (Великобритания) (196 км)
Погода в Altnaharra (Великобритания) (204 км)

Пояснения к столбцам:

Ветер - указаны скорость ветра в м/с - средняя за 10 мин, порывы в срок и между сроками (в фигурных скобках) и направление, откуда дует ветер: С - северный, СВ - северо-восточный, В - восточный, ЮВ - юго-восточный, Ю - южный, ЮЗ - юго-западный, З - западный, СЗ - северо-западный.
Видимость - горизонтальная дальность видимости в метрах или километрах. При видимости от 1 до 10 км при отсутствии осадков обычно наблюдается дымка, при ухудшении видимости до 1 км и менее - туман. В сухую погоду видимость может ухудшаться дымом, пылью или мглою.
Явления - указаны атмосферные явления, наблюдавшиеся в срок или в последний час перед сроком; фигурными скобками обозначены явления, наблюдавшиеся между сроками (за 1-3 часа до срока); квадратными скобками обозначены град или гололедные отложения с указанием их диаметра в мм.
Облачность - указаны через наклонную черту общая и нижняя облачность в баллах и высота нижней границы облаков в метрах; квадратными скобками обозначены формы облаков: Ci - перистые, Cs - перисто-слоистые, Cc - перисто-кучевые, Ac - высококучевые, As - высокослоистые, Sc - слоисто-кучевые, Ns - слоисто-дождевые, Cu - кучевые, Cb - кучево-дождевые. Подробнее классификацию облаков см. в Атласе облаков (PDF).
T - Температура воздуха - температура, измеренная на высоте 2 м над землей.
Td - Температура точки росы - температура, при понижении до которой содержащийся в воздухе водяной пар достигнет насыщения.
f - Относительная влажность воздуха - влажноcть воздуха, измеренная на высоте 2 м над землей.
Te - Эффективная температура - температура, которую ощущает одетый по сезону человек в тени. Характеристика душности погоды. При расчете учитывается влияние влажности воздуха и скорости ветра на теплоощущения человека.
Tes - Эффективная температура на солнце - температура, которую ощущает человек, с поправкой на солнечный нагрев. Характеристика знойности погоды. Зависит от высоты солнца над горизонтом, облачности и скорости ветра. Ночью, в пасмурную погоду, а также при ветре 12 м/с и более поправка равна нулю.
P - Атмосферное давление - приведенное к уровню моря атмосферное давление.
Po - Атмосферное давление - измеренное на уровне метеостанции атмосферное давление.
Tmin - Минимальная температура - минимум температуры воздуха на высоте 2 м над землей.
Tmax - Максимальная температура - максимум температуры воздуха на высоте 2 м над землей.
R - Количество осадков - Количество выпавших осадков за период времени, мм. При наведении курсора мыши на число - период времени, за который выпало указанное количество осадков.
R24 - Количество осадков - Количество выпавших осадков за 24 часа, мм.
S - Снежный покров - Высота снежного покрова, см. При наведении курсора мыши на число - состояние снежного покрова и степень покрытия местности в баллах.